• In Austria
  • List of Countries
  • For 7 days
  • Water Temperature
  • Satellite Maps
  • Weather Map
  • News
  • Weather Widgets
  • user-avatar
    Login

    Hourly Weather Krobielewo

    Today, 13 November, Tuesday

    Time Temperature Precipitation Wind Pressure Humidity
    00:00 +10°C° 0 mm 3 mps 762 mmHg 85%
    01:00 +9°C° 0 mm 2 mps 761 mmHg 88%
    02:00 +9°C° 0 mm 2 mps 762 mmHg 88%
    03:00 +9°C° 0 mm 3 mps 762 mmHg 87%
    04:00 +9°C° 0 mm 3 mps 762 mmHg 86%
    05:00 +9°C° 0 mm 3 mps 762 mmHg 87%
    06:00 +9°C° 0 mm 2 mps 762 mmHg 87%
    07:00 +8°C° 0 mm 2 mps 762 mmHg 89%
    08:00 +9°C° 0.2 mm 2 mps 762 mmHg 87%
    09:00 +10°C° 0.2 mm 3 mps 762 mmHg 85%
    10:00 +10°C° 0.2 mm 3 mps 762 mmHg 83%
    11:00 +10°C° 1.4 mm 3 mps 763 mmHg 85%
    12:00 +10°C° 1.4 mm 3 mps 763 mmHg 88%
    13:00 +10°C° 1.4 mm 3 mps 763 mmHg 90%
    14:00 +10°C° 0.9 mm 3 mps 763 mmHg 91%
    15:00 +10°C° 0.9 mm 3 mps 763 mmHg 92%
    16:00 +10°C° 0.9 mm 3 mps 764 mmHg 93%
    17:00 +10°C° 0.3 mm 3 mps 764 mmHg 91%
    18:00 +10°C° 0.3 mm 3 mps 764 mmHg 89%
    19:00 +10°C° 0.3 mm 4 mps 765 mmHg 86%
    20:00 +10°C° 0.1 mm 4 mps 765 mmHg 86%
    21:00 +8°C° 0.1 mm 4 mps 765 mmHg 85%
    22:00 +8°C° 0.1 mm 4 mps 766 mmHg 85%
    23:00 +8°C° 0 mm 4 mps 766 mmHg 86%

    Tomorrow, 14 November, Wednesday

    Time Temperature Precipitation Wind Pressure Humidity
    00:00 +7°C° 0 mm 4 mps 766 mmHg 87%
    01:00 +7°C° 0 mm 4 mps 766 mmHg 88%
    02:00 +7°C° 0 mm 4 mps 766 mmHg 89%
    03:00 +7°C° 0 mm 4 mps 766 mmHg 90%
    04:00 +6°C° 0 mm 4 mps 766 mmHg 90%
    05:00 +6°C° 0 mm 4 mps 767 mmHg 91%
    06:00 +6°C° 0 mm 4 mps 767 mmHg 91%
    07:00 +6°C° 0 mm 4 mps 767 mmHg 91%
    08:00 +7°C° 0 mm 4 mps 768 mmHg 90%
    09:00 +7°C° 0 mm 4 mps 768 mmHg 88%
    10:00 +7°C° 0 mm 4 mps 768 mmHg 87%
    11:00 +8°C° 0 mm 4 mps 768 mmHg 86%
    12:00 +8°C° 0 mm 4 mps 769 mmHg 84%
    13:00 +9°C° 0 mm 3 mps 769 mmHg 83%
    14:00 +9°C° 0 mm 3 mps 769 mmHg 85%
    15:00 +9°C° 0 mm 2 mps 769 mmHg 86%
    16:00 +9°C° 0 mm 2 mps 769 mmHg 87%
    17:00 +9°C° 0 mm 1 mps 769 mmHg 89%
    18:00 +9°C° 0 mm 1 mps 770 mmHg 91%
    19:00 +8°C° 0 mm 1 mps 770 mmHg 93%
    20:00 +8°C° 0 mm 1 mps 770 mmHg 94%
    21:00 +7°C° 0 mm 1 mps 770 mmHg 94%
    22:00 +7°C° 0 mm 1 mps 770 mmHg 95%
    23:00 +7°C° 0 mm 1 mps 770 mmHg 95%

    Day after tomorrow, 15 November, Thursday

    Time Temperature Precipitation Wind Pressure Humidity
    00:00 +7°C° 0 mm 1 mps 770 mmHg 95%
    01:00 +5°C° 0 mm 0 mps 770 mmHg 95%
    02:00 +5°C° 0 mm 0 mps 770 mmHg 95%
    03:00 +5°C° 0 mm 0 mps 770 mmHg 95%
    04:00 +5°C° 0 mm 0 mps 770 mmHg 95%
    05:00 +6°C° 0 mm 1 mps 770 mmHg 95%
    06:00 +6°C° 0 mm 1 mps 771 mmHg 95%
    07:00 +6°C° 0 mm 1 mps 771 mmHg 95%
    08:00 +6°C° 0 mm 1 mps 771 mmHg 92%
    09:00 +6°C° 0 mm 2 mps 771 mmHg 89%
    10:00 +7°C° 0 mm 2 mps 771 mmHg 87%
    11:00 +8°C° 0 mm 2 mps 771 mmHg 83%
    12:00 +9°C° 0 mm 2 mps 771 mmHg 79%
    13:00 +10°C° 0 mm 2 mps 771 mmHg 76%
    14:00 +9°C° 0 mm 2 mps 771 mmHg 79%
    15:00 +8°C° 0 mm 2 mps 771 mmHg 83%
    16:00 +7°C° 0 mm 2 mps 771 mmHg 87%
    17:00 +7°C° 0 mm 2 mps 772 mmHg 88%
    18:00 +6°C° 0 mm 2 mps 772 mmHg 90%
    19:00 +6°C° 0 mm 2 mps 772 mmHg 91%
    20:00 +6°C° 0 mm 2 mps 772 mmHg 91%
    21:00 +5°C° 0 mm 2 mps 772 mmHg 91%
    22:00 +5°C° 0 mm 2 mps 773 mmHg 91%
    23:00 +5°C° 0 mm 2 mps 773 mmHg 91%

    16 November, Friday

    Time Temperature Precipitation Wind Pressure Humidity
    00:00 +5°C° 0 mm 2 mps 773 mmHg 92%
    01:00 +4°C° 0 mm 2 mps 773 mmHg 92%
    02:00 +4°C° 0 mm 2 mps 773 mmHg 92%
    03:00 +4°C° 0 mm 2 mps 773 mmHg 93%
    04:00 +4°C° 0 mm 2 mps 773 mmHg 93%
    05:00 +4°C° 0 mm 2 mps 773 mmHg 93%
    06:00 +4°C° 0 mm 2 mps 773 mmHg 93%
    07:00 +3°C° 0 mm 2 mps 774 mmHg 93%
    08:00 +3°C° 0 mm 3 mps 774 mmHg 89%
    09:00 +4°C° 0 mm 3 mps 774 mmHg 85%
    10:00 +5°C° 0 mm 3 mps 775 mmHg 80%
    11:00 +7°C° 0 mm 3 mps 775 mmHg 77%
    12:00 +8°C° 0 mm 3 mps 775 mmHg 73%
    13:00 +9°C° 0 mm 3 mps 775 mmHg 69%
    14:00 +8°C° 0 mm 3 mps 775 mmHg 72%
    15:00 +7°C° 0 mm 3 mps 775 mmHg 76%
    16:00 +6°C° 0 mm 2 mps 775 mmHg 80%
    17:00 +5°C° 0 mm 3 mps 775 mmHg 82%
    18:00 +4°C° 0 mm 3 mps 775 mmHg 84%
    19:00 +4°C° 0 mm 3 mps 775 mmHg 85%
    20:00 +3°C° 0 mm 3 mps 775 mmHg 86%
    21:00 +3°C° 0 mm 3 mps 775 mmHg 87%
    22:00 +3°C° 0 mm 3 mps 776 mmHg 87%
    23:00 +2°C° 0 mm 3 mps 776 mmHg 88%

    17 November, Saturday

    Time Temperature Precipitation Wind Pressure Humidity
    00:00 +2°C° 0 mm 3 mps 776 mmHg 89%
    01:00 +2°C° 0 mm 3 mps 776 mmHg 89%
    02:00 +2°C° 0 mm 3 mps 776 mmHg 90%
    03:00 +1°C° 0 mm 3 mps 776 mmHg 90%
    04:00 +1°C° 0 mm 3 mps 776 mmHg 90%
    05:00 +1°C° 0 mm 3 mps 776 mmHg 91%
    06:00 +1°C° 0 mm 3 mps 776 mmHg 92%
    07:00 +1°C° 0 mm 3 mps 776 mmHg 93%
    08:00 +2°C° 0 mm 3 mps 776 mmHg 88%
    09:00 +2°C° 0 mm 3 mps 776 mmHg 84%
    10:00 +3°C° 0 mm 3 mps 777 mmHg 79%
    11:00 +4°C° 0 mm 3 mps 776 mmHg 75%
    12:00 +5°C° 0 mm 3 mps 776 mmHg 70%
    13:00 +7°C° 0 mm 3 mps 776 mmHg 66%
    14:00 +5°C° 0 mm 3 mps 776 mmHg 69%
    15:00 +4°C° 0 mm 3 mps 776 mmHg 71%
    16:00 +5°C° 0 mm 2 mps 776 mmHg 74%
    17:00 +4°C° 0 mm 2 mps 776 mmHg 76%
    18:00 +4°C° 0 mm 2 mps 776 mmHg 78%
    19:00 +3°C° 0 mm 2 mps 776 mmHg 80%
    20:00 +3°C° 0 mm 2 mps 776 mmHg 80%
    21:00 +3°C° 0 mm 2 mps 776 mmHg 81%
    22:00 +2°C° 0 mm 2 mps 776 mmHg 81%
    23:00 +2°C° 0 mm 2 mps 775 mmHg 81%

    18 November, Sunday

    Time Temperature Precipitation Wind Pressure Humidity
    00:00 +2°C° 0 mm 2 mps 775 mmHg 81%
    01:00 +2°C° 0 mm 2 mps 775 mmHg 81%
    02:00 +2°C° 0 mm 2 mps 775 mmHg 81%
    03:00 +2°C° 0 mm 1 mps 774 mmHg 81%
    04:00 +2°C° 0 mm 1 mps 774 mmHg 81%
    05:00 +2°C° 0 mm 1 mps 774 mmHg 81%
    06:00 +2°C° 0 mm 1 mps 774 mmHg 82%
    07:00 +2°C° 0 mm 1 mps 773 mmHg 82%
    08:00 +3°C° 0 mm 1 mps 773 mmHg 79%
    09:00 +4°C° 0 mm 1 mps 773 mmHg 75%
    10:00 +5°C° 0 mm 1 mps 773 mmHg 72%
    11:00 +5°C° 0 mm 2 mps 773 mmHg 72%
    12:00 +6°C° 0 mm 2 mps 772 mmHg 73%
    13:00 +7°C° 0 mm 2 mps 772 mmHg 73%
    14:00 +5°C° 0 mm 3 mps 771 mmHg 77%
    15:00 +5°C° 0 mm 3 mps 771 mmHg 81%
    16:00 +5°C° 0 mm 3 mps 771 mmHg 84%
    17:00 +5°C° 0 mm 4 mps 771 mmHg 83%
    18:00 +5°C° 0 mm 4 mps 771 mmHg 81%
    19:00 +5°C° 0 mm 5 mps 771 mmHg 79%
    20:00 +5°C° 0 mm 5 mps 771 mmHg 76%
    21:00 +3°C° 0 mm 6 mps 771 mmHg 73%
    22:00 +2°C° 0 mm 6 mps 771 mmHg 71%
    23:00 +2°C° 0 mm 5 mps 771 mmHg 69%
    Show more